Location: Brno
(49.2000°N, 16.6330°E)
Time: 18:57:05
(UTC+02:00)

S-56A Canister/Altair - Visible Passes

Search period start: 28 July 2021 00:00
Search period end: 07 August 2021 00:00
Orbit: 631 x 2501 km, 38.9° (Epoch: 27 July)

Date Brightness Start Highest point End Pass type
(mag) Time Alt. Az. Time Alt. Az. Time Alt. Az.
28 Jul 10.6 00:13:36 10° WSW 00:18:46 14° SW 00:21:22 13° SW visible
28 Jul 10.3 21:30:10 10° W 21:43:07 41° SSW 21:52:43 12° SE visible
28 Jul 10.6 23:38:53 10° W 23:46:05 17° SW 23:50:07 14° SSW visible
29 Jul 10.3 20:56:28 10° W 21:09:58 44° SSW 21:20:40 10° SE visible
29 Jul 10.6 23:04:32 10° W 23:13:19 21° SW 23:18:54 14° SSW visible
30 Jul 10.6 22:30:23 10° W 22:40:27 24° SW 22:47:43 13° S visible
31 Jul 10.7 21:56:23 10° W 22:07:31 28° SW 22:16:34 10° S visible
01 Aug 10.8 21:22:31 10° W 21:34:29 31° SW 21:44:28 10° SSE visible
02 Aug 10.8 20:48:45 10° W 21:01:22 35° SW 21:12:06 10° SSE visible
02 Aug 11.1 22:59:54 10° WSW 23:04:08 12° SW 23:08:05 10° SW visible
03 Aug 11.1 22:24:35 10° W 22:31:19 15° SW 22:37:27 10° SSW visible
04 Aug 11.1 21:49:59 10° W 21:58:26 18° SW 22:06:02 10° SSW visible
05 Aug 11.1 21:15:46 10° W 21:25:28 21° SW 21:34:14 10° S visible
06 Aug 11.2 20:41:46 10° W 20:52:25 24° SW 21:02:12 10° S visible
